Regional Weather Roundup
Issued by NWS Little Rock, AR

Home | Current Version | Previous Version | Graphics & Text | Print | Product List | Glossary On
Versions: 1 2 3 4 5 6 7 8 9 10 11 12 13 14 15 16 17 18 19 20 21 22 23 24 25 26 27
000
ASUS44 KLZK 180805
RWRLZK

WEATHER ROUNDUP FOR ARKANSAS
NATIONAL WEATHER SERVICE LITTLE ROCK AR
300 AM CDT FRI APR 18 2014

NOTE: "FAIR" INDICATES FEW OR NO CLOUDS BELOW 12,000 FEET WITH NO
SIGNIFICANT WEATHER AND/OR OBSTRUCTIONS TO VISIBILITY.

ARZ001-003-010-029-180900-
NORTHWEST ARKANSAS

CITY           SKY/WX    TMP DP  RH WIND       PRES   REMARKS
FAYETTEVILLE   PTCLDY    46  42  86 CALM      30.22F
FORT SMITH     CLEAR     55  45  68 CALM      30.20F
HARRISON       CLEAR     49  41  74 W3        30.22F
BENTONVILLE    CLOUDY    50  39  66 CALM      30.24S
ROGERS         MOCLDY    48  40  73 E3        30.24S
SILOAM SPGS    CLOUDY    50  39  66 CALM      30.24F
HIGHFILL       CLOUDY    50  42  74 CALM      30.22F
$$

ARZ004-005-016-180900-
NORTH CENTRAL ARKANSAS

CITY           SKY/WX    TMP DP  RH WIND       PRES   REMARKS
BATESVILLE     CLOUDY    50  43  76 CALM      30.22S
FLIPPIN        PTCLDY    52  36  54 CALM      30.23R
MTN HOME       CLOUDY    52  39  61 NE5       30.22S
$$

ARZ040-041-180900-
WEST CENTRAL ARKANSAS

CITY           SKY/WX    TMP DP  RH WIND       PRES   REMARKS
MENA           CLEAR     46  46 100 CALM      30.21S
MOUNT IDA      PTCLDY    49  46  90 CALM      30.19S
$$

ARZ009-017-025-026-028-180900-
NORTHEAST ARKANSAS

CITY           SKY/WX    TMP DP  RH WIND       PRES   REMARKS
CORNING        LGT RAIN  54  48  82 N6        30.24R
JONESBORO      CLOUDY    53  44  71 CALM      30.23R
NEWPORT        LGT RAIN  53  52  97 NE5       30.23R
WALNUT RIDGE   CLOUDY    54  50  87 N3        30.23S
BLYTHEVILLE    MOCLDY    56  46  69 SE5       30.23S
$$

ARZ022-023-033-042-044-180900-
CENTRAL ARKANSAS

CITY           SKY/WX    TMP DP  RH WIND       PRES   REMARKS
LITTLE ROCK    CLOUDY    56  49  77 CALM      30.21S
N LITTLE ROCK    N/A     56  49  78 NW5       30.21S
JACKSONVILLE   MOCLDY    53  48  82 NW1       30.22R
SEARCY         CLOUDY    52  50  93 NW5       30.22R
HOT SPRINGS    CLOUDY    55  50  83 CALM      30.21R
RUSSELLVILLE   PTCLDY    48  45  89 CALM      30.21S
CLINTON        CLOUDY    52  48  87 CALM      30.23S
$$

ARZ036-180900-
EAST ARKANSAS

CITY           SKY/WX    TMP DP  RH WIND       PRES   REMARKS
WEST MEMPHIS   MOCLDY    55  50  83 CALM      30.19F
$$

ARZ050-053-066-070-073-180900-
SOUTHWEST ARKANSAS

CITY           SKY/WX    TMP DP  RH WIND       PRES   REMARKS
ARKADELPHIA    LGT RAIN  54  52  93 CALM      30.22R
CAMDEN         MOCLDY    54  48  82 MISG      30.19S
TEXARKANA      CLOUDY    53  51  93 CALM      30.19S
EL DORADO      MOCLDY    55  49  80 CALM      30.17F
DE QUEEN       PTCLDY    47  47 100 E3        30.19S FOG
$$

ARZ056-057-069-180900-
SOUTHEAST ARKANSAS

CITY           SKY/WX    TMP DP  RH WIND       PRES   REMARKS
PINE BLUFF     CLOUDY    54  50  86 CALM      30.20S
STUTTGART      CLOUDY    57  46  67 E6        30.21S
MONTICELLO     MOCLDY    55  50  83 CALM      30.18F

$$





USA.gov is the U.S. government's official web portal to all federal, state and local government web resources and services.